www.pogodaiklimat.ru

Погода и климат >> Архив погоды >> Ливия >> Marada


ПОГОДА в Marada

  • Прогноз погоды в Marada
  • Монитор погоды в Marada
  • Климат города

АРХИВ ПОГОДЫ в Marada

Время (UTC), дата Ветер
(напр.,м/с)
 
Видим.   Явления Облачность Т
(С)
Тd
(С)
f
(%)
Тe
(С)
Тes
(С)
Комфортность P
(гПа)
Po
(гПа)
Тmin
(С)
Tmax
(С)
R
(мм)
R24
(мм)
S
(см)
21 18.04 1400 м {морось} ?/? +50.3 1035.8 1036.0
00 19.04 400 м {морось} ?/? +50.3 1036.5 1037.0
03 19.04 3400 м ?/? +50.2 1036.5 1037.0
06 19.04 14 км ?/? +50.2 1037.2 1037.0
09 19.04 1000 м {ливн. осадки} ?/? +40.2 1038.4 1038.0
12 19.04 2400 м {ливн. осадки} ?/? +40.2 1038.5 1039.0
15 19.04 н/о {дождь} ?/? +40.1 1037.8 1038.0
18 19.04 50 км {дождь} ?/? +40.1 1037.6 1038.0
21 19.04 1400 м {морось} ?/? +40.1 1037.6 1038.0
00 20.04 400 м {морось} ?/? +40.1 1037.3 1037.0
03 20.04 3400 м {морось} ?/? +30.1 1036.5 1037.0
06 20.04 14 км {снег} ?/? +30.1 1035.5 1036.0
09 20.04 1000 м {гроза} ?/? +30.2 1035.2 1035.0
12 20.04 2400 м {гроза} ?/? +30.2 1034.5 1035.0
15 20.04 н/о {гроза} ?/? +40.2 1033.7 1034.0
18 20.04 50 км {дождь} ?/? +30.1 1032.6 1033.0
21 20.04 1400 м {ливн. осадки} ?/? +40.2 1032.2 1032.0
00 21.04 400 м {снег} ?/? +30.1 1031.3 1031.0
03 21.04 3400 м {морось} ?/? +30.1 1029.9 1030.0
06 21.04 14 км {морось} ?/? +30.1 1029.5 1030.0
09 21.04 1000 м {морось} ?/? +30.1 1029.7 1030.0
12 21.04 2400 м {снег} ?/? +30.1 1028.8 1029.0
15 21.04 н/о {ливн. осадки} ?/? +30.2 1027.6 1028.0
18 21.04 50 км ?/? +40.2 1026.7 1027.0
21 21.04 1400 м ?/? +40.2 1027.8 1028.0
00 22.04 400 м {ливн. осадки} ?/? +40.2 1027.7 1028.0
03 22.04 3400 м ?/? +40.2 1027.5 1028.0
06 22.04 14 км ?/? +40.2 1027.9 1028.0
09 22.04 1000 м {дождь} ?/? +50.3 1028.8 1029.0
12 22.04 2400 м {ливн. осадки} ?/? 1028.7 1029.0
15 22.04 н/о ?/? +50.4 1028.2 1028.0
18 22.04 50 км {метель} ?/? 1028.0 1028.0
21 22.04 1400 м ?/? 1027.8 1028.0
00 23.04 400 м {гроза} ?/? 1027.8 1028.0
03 23.04 3400 м ?/? 1027.2 1027.0
06 23.04 14 км ?/? +50.4 1027.2 1027.0
09 23.04 1000 м {ливн. осадки} ?/? +50.4 1027.6 1028.0
12 23.04 2400 м {дождь} ?/? 1027.0 1027.0
15 23.04 н/о {дождь} ?/? 1025.2 1025.0
18 23.04 50 км {морось} ?/? +50.3 1023.2 1023.0
21 23.04 1400 м {метель} ?/? +50.3 1021.4 1021.0
00 24.04 400 м {дождь} ?/? +40.3 1018.3 1018.0
03 24.04 3400 м {морось} ?/? +40.3 1016.3 1016.0
06 24.04 14 км ?/? +40.2 1014.6 1015.0
09 24.04 1000 м {туман} ?/? +40.3 1013.7 1014.0
12 24.04 2400 м {туман} ?/? +50.3 1012.8 1013.0
15 24.04 н/о {метель} ?/? +50.3 1011.1 1011.0
18 24.04 50 км {туман} ?/? +50.3 1009.8 1010.0
21 24.04 1400 м {метель} ?/? +50.3 1007.9 1008.0
00 25.04 400 м {морось} ?/? +50.3 1007.5 1008.0
03 25.04 3400 м {морось} ?/? 1005.5 1006.0
06 25.04 14 км {метель} ?/? 1007.8 1008.0
09 25.04 1000 м {туман} ?/? +50.5 1009.8 1010.0
12 25.04 2400 м ?/? +50.4 1010.5 1011.0
15 25.04 н/о ?/? +50.4 1010.2 1010.0

 

Местоположение метеостанции Marada (Ливия): широта 29.47 долгота 19.33 высота над уровнем моря 37 м.

В архиве по умолчанию представлена погода в Marada за последнюю неделю. Архивные данные за месяц целиком и за предыдущие месяцы, начиная с января 2011 года, Вы можете получить, выбрав интересующий диапазон дат из раскрывающегося списка и нажав кнопку "Ввод!".

Внимание! Время в таблицах - всемирное. Для получения местного времени необходимо прибавить поправку, которая в Marada равна 1 ч.

Смотрите также архив погоды в соседних городах и на ближайших метеорологических станциях:

Погода в Jalo (Ливия) (223 км)
Погода в Benina (Ливия) (306 км)
Погода в Sirte (Ливия) (327 км)
Погода в Hon (Ливия) (332 км)
Погода в Tazerbo (Ливия) (445 км)
Погода в Vyeboom (Южная Африка) (519 км)
Погода в Misurata (Ливия) (524 км)
Погода в Sebha (Ливия) (550 км)
Погода в Beni Walid (Ливия) (554 км)
Погода в Gariat El-Sharghia (Ливия) (563 км)

Пояснения к столбцам:

Ветер - указаны скорость ветра в м/с - средняя за 10 мин, порывы в срок и между сроками (в фигурных скобках) и направление, откуда дует ветер: С - северный, СВ - северо-восточный, В - восточный, ЮВ - юго-восточный, Ю - южный, ЮЗ - юго-западный, З - западный, СЗ - северо-западный.
Видимость - горизонтальная дальность видимости в метрах или километрах. При видимости от 1 до 10 км при отсутствии осадков обычно наблюдается дымка, при ухудшении видимости до 1 км и менее - туман. В сухую погоду видимость может ухудшаться дымом, пылью или мглою.
Явления - указаны атмосферные явления, наблюдавшиеся в срок или в последний час перед сроком; фигурными скобками обозначены явления, наблюдавшиеся между сроками (за 1-3 часа до срока); квадратными скобками обозначены град или гололедные отложения с указанием их диаметра в мм.
Облачность - указаны через наклонную черту общая и нижняя облачность в баллах и высота нижней границы облаков в метрах; квадратными скобками обозначены формы облаков: Ci - перистые, Cs - перисто-слоистые, Cc - перисто-кучевые, Ac - высококучевые, As - высокослоистые, Sc - слоисто-кучевые, Ns - слоисто-дождевые, Cu - кучевые, Cb - кучево-дождевые. Подробнее классификацию облаков см. в Атласе облаков (PDF).
T - Температура воздуха - температура, измеренная на высоте 2 м над землей.
Td - Температура точки росы - температура, при понижении до которой содержащийся в воздухе водяной пар достигнет насыщения.
f - Относительная влажность воздуха - влажноcть воздуха, измеренная на высоте 2 м над землей.
Te - Эффективная температура - температура, которую ощущает одетый по сезону человек в тени. Характеристика душности погоды. При расчете учитывается влияние влажности воздуха и скорости ветра на теплоощущения человека.
Tes - Эффективная температура на солнце - температура, которую ощущает человек, с поправкой на солнечный нагрев. Характеристика знойности погоды. Зависит от высоты солнца над горизонтом, облачности и скорости ветра. Ночью, в пасмурную погоду, а также при ветре 12 м/с и более поправка равна нулю.
P - Атмосферное давление - приведенное к уровню моря атмосферное давление.
Po - Атмосферное давление - измеренное на уровне метеостанции атмосферное давление.
Tmin - Минимальная температура - минимум температуры воздуха на высоте 2 м над землей.
Tmax - Максимальная температура - максимум температуры воздуха на высоте 2 м над землей.
R - Количество осадков - Количество выпавших осадков за период времени, мм. При наведении курсора мыши на число - период времени, за который выпало указанное количество осадков.
R24 - Количество осадков - Количество выпавших осадков за 24 часа, мм.
S - Снежный покров - Высота снежного покрова, см. При наведении курсора мыши на число - состояние снежного покрова и степень покрытия местности в баллах.